03/18/2000
Moonlight Run 2000 - 10KM

Race Results By Category

10KM20-29
Category Total 38
                NAME                NUMBER          TIME       PACE       CITY

1/38 KANANGA, TELES 2216 00:33:32 05:30 CALGARY
2/38 VIOLA, STEVE 2146 00:35:23 05:48 CARDSTON
3/38 WOOD, KEVIN 2477 00:39:14 06:26 LETH
4/38 GANGL, MARK 2142 00:40:33 06:39 BROOKS
5/38 TOTTEN, TEMPLE 2428 00:41:20 06:47 CALGARY
6/38 WATT, KEVIN 2456 00:42:03 06:54 CALGARY
7/38 RUITER, HENK 2202 00:42:37 06:59 FT. MACLEOD
8/38 KOZAK, JOHN 2232 00:42:42 07:00 FT. MACLEOD
9/38 HARAGUCHI, TOMOYOSHI 2174 00:43:10 07:05 LETH
10/38 NESS, DARREN 2325 00:43:13 07:05 LETH
11/38 COATES, CHRIS 2071 00:43:22 07:07 WINNIPEG
12/38 JONES, DEWI 2208 00:44:23 07:17 CHEMAINUS
13/38 KEITCH, JUSTIN 2219 00:44:36 07:19 CRANBROOK
14/38 BALDRY, DEREK 2020 00:44:57 07:22 RAYMOND
15/38 JOSEPH, STEVE 2212 00:45:11 07:24 LETH
16/38 MENARD, LAYNE 2302 00:48:43 07:59 LETH
17/38 BROWNE, ASHLEY 2050 00:48:48 08:00 LETH
18/38 BREWER, SHANE 2046 00:49:09 08:03 LETH
19/38 PURVES, DARREN 2356 00:49:26 08:06 BROOKS
20/38 SCHULZ, TREVOR 2377 00:49:37 08:08 CALGARY
21/38 DUFFY, DAN 2104 00:50:26 08:16 CALGART
22/38 SADLEMYER, COREY 2373 00:50:27 08:16 MED. HAT
23/38 THIELEN, LANNIE 2417 00:50:32 08:17 LETH
24/38 HILL, BRETT 2186 00:50:35 08:18 LETH
25/38 ARVIDSON, OWEN 2009 00:51:39 08:28 LETH
26/38 KOZUB, JON 2233 00:51:59 08:31 LETH
27/38 SCHILLING, JASON 2376 00:52:22 08:35 VULCAN
28/38 KALEN, JIM 2215 00:54:03 08:52 LETH
29/38 LORENZ, BRENT 2258 00:56:13 09:13 LETH
30/38 LEISHMAN, CURTIS 2244 00:56:18 09:14 LETH
31/38 ZAGORSKY, DOUG 2487 00:56:27 09:15 LETH
32/38 MAHON, BRUCE 2267 00:56:39 09:17 EDMONTON
33/38 SPATE, JAY 2394 00:57:20 09:24 EDMONTON
34/38 NIELSON, DALE 2326 00:58:37 09:37 LETH
35/38 JORGENSEN, CHRIS 2210 00:59:16 09:43 LETH
36/38 ROSENEGGER, STEPHEN 2367 01:02:17 10:13 CALGARY
37/38 EARL, KENT 2110 01:02:41 10:17 LETH
38/38 BERRY, SCOTT 2028 01:07:08 11:00 CALGARY